This demonstration page uses our WeatherBlox Daily Observations layout. Learn more.

Left ArrowRight Arrow

38.20091, -84.87328

Hourly Observations for July 22, 2019

Temp ( °F °C ) Dew Point ( °F °C ) Humidity (%) Winds ( mph kmh ) Pressure ( in mb ) Visibility ( mi km ) Precip ( " mm )
12:22 am 00:22 Mostly Cloudy 76 24.4 74 23.3 94 94 VRB 5 7 29.90 1012 10 16 0.00 0.00
12:43 am 00:43 Mostly Cloudy 75 23.9 71 21.7 88 88 WNW 6 9 29.91 1013 10 16 0.00 0.00
12:53 am 00:53 Partly Cloudy 75 23.9 71 21.7 88 88 W 5 7 29.91 1013 10 16 0.00 0.00
1:53 am 01:53 Cloudy 74 23.3 71 21.7 91 91 S 5 7 29.91 1013 10 16 0.00 0.00
2:53 am 02:53 Partly Cloudy 74 23.3 71 21.7 91 91 ESE 5 7 29.87 1011 10 16 0.00 0.00
3:53 am 03:53 Mostly Clear 73 22.8 71 21.7 94 94 Calm 29.88 1012 10 16 0.00 0.00
4:34 am 04:34 Mostly Clear 73 22.8 71 21.7 94 94 WNW 3 6 29.88 1012 8 13 0.00 0.00
4:53 am 04:53 Mostly Clear 73 22.8 71 21.7 94 94 Calm 29.89 1012 9 14 0.00 0.00
5:53 am 05:53 Partly Cloudy 73 22.8 71 21.7 94 94 Calm 29.88 1012 10 16 0.00 0.00
6:53 am 06:53 Mostly Sunny 73 22.8 71 21.7 94 94 SSW 3 6 29.88 1012 10 16 0.00 0.00
7:53 am 07:53 Cloudy 73 22.8 70 21.1 90 90 SSW 6 9 29.90 1012 10 16 0.00 0.00
8:36 am 08:36 Cloudy with Light Rain 73 22.8 71 21.7 94 94 VRB 3 6 29.90 1013 2 3 0.02 0.51
8:46 am 08:46 Cloudy 73 22.8 71 21.7 94 94 WSW 5 7 29.90 1013 9 14 0.02 0.51
8:53 am 08:53 Cloudy with Mist and Fog 73 22.8 71 21.7 94 94 Calm 29.90 1013 5 8 0.02 0.51
9:19 am 09:19 Cloudy 74 23.3 71 21.7 91 91 SW 5 7 29.90 1013 10 16 0.00 0.03
9:53 am 09:53 Cloudy 75 23.9 72 22.2 90 90 SW 5 7 29.90 1013 10 16 0.00 0.03
10:05 am 10:05 Cloudy 75 23.9 72 22.2 90 90 SW 6 9 29.89 1012 10 16 0.00 0.00
10:34 am 10:34 Cloudy 75 23.9 72 22.2 90 90 WSW 5 7 29.90 1013 10 16 0.00 0.00
10:53 am 10:53 Cloudy 76 24.4 71 21.7 85 85 W 5 7 29.90 1013 10 16 0.00 0.00
11:16 am 11:16 Cloudy 77 25 72 22.2 85 85 W 3 6 29.90 1012 10 16 0.00 0.00
12:04 pm 12:04 Cloudy 79 26.1 72 22.2 79 79 VRB 5 7 29.88 1012 10 16 0.00 0.00
1:04 pm 13:04 Cloudy 79 26.1 72 22.2 79 79 W 6 9 29.87 1012 10 16 0.00 0.00
1:23 pm 13:23 Cloudy 81 27.2 72 22.2 74 74 W 8 13 29.87 1012 10 16 0.00 0.00
1:53 pm 13:53 Mostly Cloudy 80 26.7 72 22.2 76 76 WSW 5 7 29.88 1012 10 16 0.00 0.00
2:53 pm 14:53 Mostly Cloudy 80 26.7 71 21.7 74 74 W 8 13 29.87 1012 10 16 0.00 0.00
3:39 pm 15:39 Cloudy with Heavy Rain 77 25 71 21.7 82 82 W 10 17 29.88 1012 2 2 0.07 1.78
3:41 pm 15:41 Cloudy with Heavy Rain 76 24.4 71 21.7 85 85 W 12 19 29.88 1012 1 2 0.11 2.79
3:50 pm 15:50 Cloudy with Heavy Rain 73 23 72 22 94 94 NW 8 13 29.88 1012 1 1 0.22 5.59
3:53 pm 15:53 Cloudy with Rain 74 23.3 71 21.7 91 91 NW 12 19 29.88 1012 1 2 0.22 5.59
3:57 pm 15:57 Cloudy with Light Rain 74 23.3 71 21.7 91 91 NW 9 15 29.88 1012 3 4 0.00 0.00
3:59 pm 15:59 Cloudy with Light Rain 74 23.3 71 21.7 91 91 NW 10 17 29.88 1012 7 11 0.00 0.00
4:53 pm 16:53 Cloudy 74 23.3 70 21.1 88 88 N 8 13 29.90 1013 10 16 0.01 0.25
5:03 pm 17:03 Cloudy with Light Rain 74 23.3 70 21.1 88 88 N 9 15 29.90 1013 10 16 0.00 0.00
5:14 pm 17:14 Cloudy 74 23.3 69 20.6 85 85 NNW 7 11 29.90 1013 10 16 0.00 0.00
5:53 pm 17:53 Mostly Cloudy 74 23.3 68 20 82 82 NNW 10 17 29.92 1013 10 16 0.00 0.00
6:02 pm 18:02 Mostly Cloudy 74 23.3 68 20 82 82 N 9 15 29.91 1013 10 16 0.00 0.00
6:16 pm 18:16 Partly Cloudy 74 23.3 66 18.9 76 76 N 13 20 29.91 1013 10 16 0.00 0.00
6:53 pm 18:53 Mostly Sunny 74 23.3 65 18.3 74 74 N 6 9 29.91 1013 10 16 0.00 0.00
7:53 pm 19:53 Mostly Cloudy 73 22.8 66 18.9 79 79 N 6 9 29.93 1014 10 16 0.00 0.00
8:34 pm 20:34 Cloudy 73 22.8 67 19.4 81 81 N 3 6 29.94 1014 10 16 0.00 0.00
8:43 pm 20:43 Cloudy 73 22.8 67 19.4 81 81 N 5 7 29.94 1014 10 16 0.00 0.00
8:53 pm 20:53 Cloudy 73 22.8 67 19.4 81 81 NNW 6 9 29.95 1014 10 16 0.00 0.00
9:53 pm 21:53 Cloudy 71 21.7 65 18.3 81 81 N 7 11 29.97 1015 10 16 0.00 0.00
10:53 pm 22:53 Cloudy 70 21.1 63 17.2 79 79 N 5 7 29.98 1015 10 16 0.00 0.00
11:53 pm 23:53 Partly Cloudy 69 20.6 64 17.8 84 84 N 3 6 29.97 1015 10 16 0.00 0.00

Powered by AerisWeather